Tracking 32938 objects as of 13-Jan-2026
HD Live streaming from Space Station
objects crossing your sky now

QIANFAN-49

Track QIANFAN-49 now!
10-day predictions


NORAD ID: 62250
Int'l Code: 2024-232P
Perigee: 1,063.8 km
Apogee: 1,087.8 km
Inclination: 89.0 °
Period: 106.6 minutes
Semi major axis: 7446 km
RCS: Unknown
Launch date: December 5, 2024
Source: People's Republic of China (PRC)
Launch site: Taiyaun Space Center, China (TSC)
Your satellite tracking list
Your tracking list is empty




NASA's NSSDC Master Catalog

Two Line Element Set (TLE):
1 62250U 24232P   26013.31761364  .00000037  00000-0  38756-4 0  9994
2 62250  89.0002  38.0470 0016138 102.7491 257.5465 13.50983314 72102
Source of the keplerian elements: AFSPC